Airfield :
LOGIN :

Register | Disclaimer

   EN    FR    IT 

 










Legend :    VFR   Marginal VFR   IFR   Intensive IFR   Very Intensive IFR
Visi :
Ceiling :
>= 8 km
>= 3000ft
5 to 8 km
1000 to 3000 ft
1500m to 5 km
500 to 1000 ft
800 to 1500m
200 to 500 ft
< 800m
< 200 ft
Symbols :   Thunderstorms  Fog  Heavy snow  Heavy precipitations  Wind > 20 kt
SIGMETs :     Misc.  Thunderstorms  Icing  Turbulence  Mountain Waves  Volcanic Ashes







- Airport Elevation : 7 ft
- IATA code : ESH
- Download approach charts


EGKA - Shoreham

CURRENT METAR :
  • 201020Z 16005KT 8000 NSC 17/12 Q1023

EXPIRED METARs :
  • 200950Z VRB02KT CAVOK 21/14 Q1023
  • 200920Z 01004KT CAVOK 20/14 Q1023
  • 200850Z 35005KT CAVOK 19/13 Q1023
  • 200820Z 35007KT CAVOK 17/12 Q1023
  • 200750Z 35009KT CAVOK 15/12 Q1023

TAF AMD TAF EGKA
Valid from the 20 at 10:00 until the 20 at 18:00 UTC


201025Z 2010/2018 VRB03KT 8000 NSC
BECMG 2011/2014 19010KT 9999
ATIS : +44 1273 467 372
No reported NOTAMs for that airfield.



MET'MAP, your aeronautical weather chart ! - Copyright ORBIFLY December 2007 - Disclaimer

ORBIFLY MET'MAP TEAM :

Programming & Development : Alexandra Zaïnal
Concept & Development : Baudouin d'Aumeries
Co-Development & Prog : Marc-Olivier Méhu
Technical & hardware support : Manuel Goepfert

Contact : metmap@orbifly.com




SOURCES & CREDITS :

   NOAA